WetterOnline ( https://www.wetteronline.de )

Wetter aktuell Kyritz

Aktuelles Wetter: Kyritz (42m)

6-stündlich | Neueste Meldungen
Ortszeit Temperatur Wetter
Mo, 13.07. 2:00 8.7° C wolkenlos
So, 12.07. 20:00 17.5° C bedeckt
So, 12.07. 14:00 18.2° C wolkig
So, 12.07. 8:00 13.2° C wolkenlos
So, 12.07. 2:00 11.5° C leicht bewölkt
Sa, 11.07. 20:00 17.9° C leicht bewölkt
Sa, 11.07. 14:00 19.4° C fast wolkenlos
Sa, 11.07. 8:00 13.4° C wolkenlos
Ortszeit Temperatur Wetter
Mo, 13.07. 5:00 7.3° C wolkig
Mo, 13.07. 4:50 7.3° C wolkig
Mo, 13.07. 4:40 7.4° C wolkig
Mo, 13.07. 4:30 7.5° C wolkig
Mo, 13.07. 4:20 7.5° C wolkig
Mo, 13.07. 4:10 7.8° C wolkig
Mo, 13.07. 4:00 7.6° C wolkig
Mo, 13.07. 3:30 8.2° C wolkig
Mo, 13.07. 3:00 8.5° C wolkig
Mo, 13.07. 2:30 8.9° C wolkenlos
Mo, 13.07. 2:00 8.7° C wolkenlos
Ortszeit Relative Feuchte Sichtweite
Mo, 13.07. 2:00 95% 30 km
So, 12.07. 20:00 54% 65 km
So, 12.07. 14:00 48% 55 km
So, 12.07. 8:00 76% 45 km
So, 12.07. 2:00 81% 65 km
Sa, 11.07. 20:00 49% >70 km
Sa, 11.07. 14:00 43% >70 km
Sa, 11.07. 8:00 74% 65 km
Ortszeit Relative Feuchte Sichtweite
Mo, 13.07. 5:00 97% 1.7 km
Mo, 13.07. 4:50 97% -
Mo, 13.07. 4:40 97% -
Mo, 13.07. 4:30 97% 21 km
Mo, 13.07. 4:20 97% -
Mo, 13.07. 4:10 97% -
Mo, 13.07. 4:00 96% 35 km
Mo, 13.07. 3:30 95% 40 km
Mo, 13.07. 3:00 95% 40 km
Mo, 13.07. 2:30 95% 50 km
Mo, 13.07. 2:00 95% 30 km
Ortszeit Niederschlagsmenge Niederschlagsart
Mo, 13.07. 2:00 0.0 l/m2 in 6 Std. -
So, 12.07. 20:00 0.0 l/m2 in 12 Std. -
So, 12.07. 14:00 0.0 l/m2 in 6 Std. -
So, 12.07. 8:00 0.0 l/m2 in 12 Std. -
So, 12.07. 2:00 0.0 l/m2 in 6 Std. -
Sa, 11.07. 20:00 0.1 l/m2 in 12 Std. Regen
Sa, 11.07. 14:00 0.0 l/m2 in 6 Std. -
Sa, 11.07. 8:00 0.0 l/m2 in 12 Std. -
Ortszeit Niederschlagsmenge Niederschlagsart
Mo, 13.07. 5:00 0.0 l/m2 in 1 Std. -
Mo, 13.07. 4:50 keine Meldung -
Mo, 13.07. 4:40 keine Meldung -
Mo, 13.07. 4:30 0.0 l/m2 in 1 Std. -
Mo, 13.07. 4:20 keine Meldung -
Mo, 13.07. 4:10 keine Meldung -
Mo, 13.07. 4:00 0.0 l/m2 in 1 Std. -
Mo, 13.07. 3:30 0.0 l/m2 in 1 Std. -
Mo, 13.07. 3:00 0.0 l/m2 in 1 Std. -
Mo, 13.07. 2:30 0.0 l/m2 in 1 Std. -
Mo, 13.07. 2:00 0.0 l/m2 in 1 Std. -
Ortszeit Stärke Spitze Richtung
km/h Bft. km/h Grad Sektor
Mo, 13.07. 2:00 4 1 11 200° S
So, 12.07. 20:00 9 2 31 350° N
So, 12.07. 14:00 15 3 30 280° W
So, 12.07. 8:00 7 2 14 280° W
So, 12.07. 2:00 7 2 18 300° NW
Sa, 11.07. 20:00 11 2 32 290° W
Sa, 11.07. 14:00 13 3 31 260° W
Sa, 11.07. 8:00 14 3 25 290° W
Ortszeit Stärke Spitze Richtung
km/h Bft. km/h Grad Sektor
Mo, 13.07. 5:00 2 1 6 230° SW
Mo, 13.07. 4:50 2 1 - 230° SW
Mo, 13.07. 4:40 2 1 - 230° SW
Mo, 13.07. 4:30 6 1 6 220° SW
Mo, 13.07. 4:20 6 1 - 220° SW
Mo, 13.07. 4:10 4 1 - 210° SW
Mo, 13.07. 4:00 4 1 4 210° SW
Mo, 13.07. 3:30 2 1 2 190° S
Mo, 13.07. 3:00 0 0 4 - -
Mo, 13.07. 2:30 2 1 4 220° SW
Mo, 13.07. 2:00 4 1 4 200° S
Ortszeit Untergrenze Bedeckung Gattung
total tief tief mittel hoch
Mo, 13.07. 2:00 10500 m 0/8 0/8 - - -
So, 12.07. 20:00 2100 m 8/8 8/8 - - -
So, 12.07. 14:00 1440 m 6/8 6/8 - - -
So, 12.07. 8:00 - 0/8 0/8 - - -
So, 12.07. 2:00 9000 m 3/8 0/8 - - -
Sa, 11.07. 20:00 2700 m 3/8 3/8 - - -
Sa, 11.07. 14:00 2100 m 1/8 1/8 - - -
Sa, 11.07. 8:00 - 0/8 0/8 - - -
Ortszeit Bedeckungsgrad in Achtel und Wolkenuntergrenze
Mo, 13.07. 5:00 7(10500m) 8(10500m)
Mo, 13.07. 4:50 7(10500m) 8(10500m)
Mo, 13.07. 4:40 7(10500m) 8(10500m)
Mo, 13.07. 4:30 8(10500m) 8(10500m)
Mo, 13.07. 4:20 8(10500m)
Mo, 13.07. 4:10 8(10500m)
Mo, 13.07. 4:00 8(10500m)
Mo, 13.07. 3:30 8(10500m)
Mo, 13.07. 3:00 7(10500m)
Mo, 13.07. 2:30 4(10500m)
Mo, 13.07. 2:00 1(10500m)
Ortszeit Luftdruck NN (hPa) Tendenz (hPa in 3 Std.)
Mo, 13.07. 2:00 1027 - 0,3
So, 12.07. 20:00 1027 - 0,2
So, 12.07. 14:00 1027 - 0,3
So, 12.07. 8:00 1027 + 1,3
So, 12.07. 2:00 1025 + 0,7
Sa, 11.07. 20:00 1024 + 0,8
Sa, 11.07. 14:00 1022 + 0,8
Sa, 11.07. 8:00 1020 + 1,3
Ortszeit Luftdruck NN (hPa) Tendenz (hPa in 3 Std.)
Mo, 13.07. 5:00 1026 - 0,5
Mo, 13.07. 4:50 1026 keine Meldung
Mo, 13.07. 4:40 1026 keine Meldung
Mo, 13.07. 4:30 1026 - 0,4
Mo, 13.07. 4:20 1026 keine Meldung
Mo, 13.07. 4:10 1026 keine Meldung
Mo, 13.07. 4:00 1026 - 0,4
Mo, 13.07. 3:30 1026 - 0,4
Mo, 13.07. 3:00 1026 - 0,4
Mo, 13.07. 2:30 1026 - 0,4
Mo, 13.07. 2:00 1027 - 0,3
Ortszeit Schneehöhe (cm)
Mo, 13.07. 2:00 -
So, 12.07. 20:00 -
So, 12.07. 14:00 -
So, 12.07. 8:00 -
So, 12.07. 2:00 -
Sa, 11.07. 20:00 -
Sa, 11.07. 14:00 -
Sa, 11.07. 8:00 -
Ortszeit Schneehöhe (cm)
Mo, 13.07. 5:00 -
Mo, 13.07. 4:50 -
Mo, 13.07. 4:40 -
Mo, 13.07. 4:30 -
Mo, 13.07. 4:20 -
Mo, 13.07. 4:10 -
Mo, 13.07. 4:00 -
Mo, 13.07. 3:30 -
Mo, 13.07. 3:00 -
Mo, 13.07. 2:30 -
Mo, 13.07. 2:00 -
Link zu dieser Seite / Seite empfehlen

Das Wetter in ...